Year,Month,Day,Hour,Minute,Value (Times are PST for temperature in C)
2013,08,11,00,00,16.40
2013,08,11,00,01,16.40
2013,08,11,00,02,16.40
2013,08,11,00,03,16.40
2013,08,11,00,04,16.40
2013,08,11,00,05,16.40
2013,08,11,00,06,16.40
2013,08,11,00,07,16.40
2013,08,11,00,08,16.40
2013,08,11,00,09,16.30
2013,08,11,00,10,16.30
2013,08,11,00,11,16.30
2013,08,11,00,12,16.30
2013,08,11,00,13,16.30
2013,08,11,00,14,16.30
2013,08,11,00,15,16.30
2013,08,11,00,16,16.30
2013,08,11,00,17,16.30
2013,08,11,00,18,16.30
2013,08,11,00,19,16.30
2013,08,11,00,20,16.30
2013,08,11,00,21,16.30
2013,08,11,00,22,16.30
2013,08,11,00,23,16.30
2013,08,11,00,24,16.30
2013,08,11,00,25,16.30
2013,08,11,00,26,16.30
2013,08,11,00,27,16.30
2013,08,11,00,28,16.30
2013,08,11,00,29,16.30
2013,08,11,00,30,16.30
2013,08,11,00,31,16.30
2013,08,11,00,32,16.30
2013,08,11,00,33,16.30
2013,08,11,00,34,16.30
2013,08,11,00,35,16.30
2013,08,11,00,36,16.30
2013,08,11,00,37,16.30
2013,08,11,00,38,16.30
2013,08,11,00,39,16.30
2013,08,11,00,40,16.30
2013,08,11,00,41,16.30
2013,08,11,00,42,16.30
2013,08,11,00,43,16.30
2013,08,11,00,44,16.30
2013,08,11,00,45,16.30
2013,08,11,00,46,16.30
2013,08,11,00,47,16.30
2013,08,11,00,48,16.20
2013,08,11,00,49,16.20
2013,08,11,00,50,16.20
2013,08,11,00,51,16.20
2013,08,11,00,52,16.20
2013,08,11,00,53,16.20
2013,08,11,00,54,16.20
2013,08,11,00,55,16.20
2013,08,11,00,56,16.20
2013,08,11,00,57,16.20
2013,08,11,00,58,16.20
2013,08,11,00,59,16.20
2013,08,11,01,00,16.20
2013,08,11,01,01,16.20
2013,08,11,01,02,16.20
2013,08,11,01,03,16.20
2013,08,11,01,04,16.20
2013,08,11,01,05,16.20
2013,08,11,01,06,16.20
2013,08,11,01,07,16.10
2013,08,11,01,08,16.10
2013,08,11,01,09,16.10
2013,08,11,01,10,16.10
2013,08,11,01,11,16.10
2013,08,11,01,12,16.10
2013,08,11,01,13,16.10
2013,08,11,01,14,16.10
2013,08,11,01,15,16.10
2013,08,11,01,16,16.10
2013,08,11,01,17,16.10
2013,08,11,01,18,16.10
2013,08,11,01,19,16.10
2013,08,11,01,20,16.10
2013,08,11,01,21,16.10
2013,08,11,01,22,16.10
2013,08,11,01,23,16.10
2013,08,11,01,24,16.10
2013,08,11,01,25,16.10
2013,08,11,01,26,16.10
2013,08,11,01,27,16.10
2013,08,11,01,28,16.10
2013,08,11,01,29,16.10
2013,08,11,01,30,16.10
2013,08,11,01,31,16.10
2013,08,11,01,32,16.10
2013,08,11,01,33,16.10
2013,08,11,01,34,16.10
2013,08,11,01,35,16.00
2013,08,11,01,36,16.00
2013,08,11,01,37,16.00
2013,08,11,01,38,16.00
2013,08,11,01,39,16.00
2013,08,11,01,40,16.00
2013,08,11,01,41,16.00
2013,08,11,01,42,16.00
2013,08,11,01,43,16.00
2013,08,11,01,44,15.90
2013,08,11,01,45,15.90
2013,08,11,01,46,15.90
2013,08,11,01,47,15.90
2013,08,11,01,48,15.90
2013,08,11,01,49,15.90
2013,08,11,01,50,15.90
2013,08,11,01,51,15.90
2013,08,11,01,52,15.90
2013,08,11,01,53,15.90
2013,08,11,01,54,15.90
2013,08,11,01,55,15.90
2013,08,11,01,56,15.80
2013,08,11,01,57,15.80
2013,08,11,01,58,15.80
2013,08,11,01,59,15.80
2013,08,11,02,00,15.80
2013,08,11,02,01,15.80
2013,08,11,02,02,15.80
2013,08,11,02,03,15.80
2013,08,11,02,04,15.80
2013,08,11,02,05,15.80
2013,08,11,02,06,15.80
2013,08,11,02,07,15.80
2013,08,11,02,08,15.80
2013,08,11,02,09,15.80
2013,08,11,02,10,15.70
2013,08,11,02,11,15.70
2013,08,11,02,12,15.70
2013,08,11,02,13,15.70
2013,08,11,02,14,15.70
2013,08,11,02,15,15.70
2013,08,11,02,16,15.70
2013,08,11,02,17,15.70
2013,08,11,02,18,15.70
2013,08,11,02,19,15.70
2013,08,11,02,20,15.60
2013,08,11,02,21,15.60
2013,08,11,02,22,15.60
2013,08,11,02,23,15.60
2013,08,11,02,24,15.60
2013,08,11,02,25,15.60
2013,08,11,02,26,15.60
2013,08,11,02,27,15.60
2013,08,11,02,28,15.60
2013,08,11,02,29,15.60
2013,08,11,02,30,15.60
2013,08,11,02,31,15.60
2013,08,11,02,32,15.50
2013,08,11,02,33,15.50
2013,08,11,02,34,15.50
2013,08,11,02,35,15.50
2013,08,11,02,36,15.50
2013,08,11,02,37,15.50
2013,08,11,02,38,15.40
2013,08,11,02,39,15.40
2013,08,11,02,40,15.40
2013,08,11,02,41,15.40
2013,08,11,02,42,15.40
2013,08,11,02,43,15.40
2013,08,11,02,44,15.40
2013,08,11,02,45,15.30
2013,08,11,02,46,15.30
2013,08,11,02,47,15.30
2013,08,11,02,48,15.30
2013,08,11,02,49,15.30
2013,08,11,02,50,15.30
2013,08,11,02,51,15.30
2013,08,11,02,52,15.30
2013,08,11,02,53,15.30
2013,08,11,02,54,15.30
2013,08,11,02,55,15.30
2013,08,11,02,56,15.30
2013,08,11,02,57,15.20
2013,08,11,02,58,15.20
2013,08,11,02,59,15.20
2013,08,11,03,00,15.20
2013,08,11,03,01,15.20
2013,08,11,03,02,15.20
2013,08,11,03,03,15.20
2013,08,11,03,04,15.20
2013,08,11,03,05,15.20
2013,08,11,03,06,15.20
2013,08,11,03,07,15.20
2013,08,11,03,08,15.20
2013,08,11,03,09,15.20
2013,08,11,03,10,15.20
2013,08,11,03,11,15.20
2013,08,11,03,12,15.20
2013,08,11,03,13,15.10
2013,08,11,03,14,15.10
2013,08,11,03,15,15.10
2013,08,11,03,16,15.10
2013,08,11,03,17,15.10
2013,08,11,03,18,15.10
2013,08,11,03,19,15.10
2013,08,11,03,20,15.10
2013,08,11,03,21,15.10
2013,08,11,03,22,15.10
2013,08,11,03,23,15.10
2013,08,11,03,24,15.00
2013,08,11,03,25,15.00
2013,08,11,03,26,15.00
2013,08,11,03,27,15.00
2013,08,11,03,28,15.00
2013,08,11,03,29,14.90
2013,08,11,03,30,14.90
2013,08,11,03,31,14.90
2013,08,11,03,32,14.90
2013,08,11,03,33,14.90
2013,08,11,03,34,14.90
2013,08,11,03,35,14.90
2013,08,11,03,36,14.90
2013,08,11,03,37,14.90
2013,08,11,03,38,14.80
2013,08,11,03,39,14.80
2013,08,11,03,40,14.80
2013,08,11,03,41,14.80
2013,08,11,03,42,14.80
2013,08,11,03,43,14.80
2013,08,11,03,44,14.80
2013,08,11,03,45,14.80
2013,08,11,03,46,14.80
2013,08,11,03,47,14.80
2013,08,11,03,48,14.80
2013,08,11,03,49,14.70
2013,08,11,03,50,14.70
2013,08,11,03,51,14.70
2013,08,11,03,52,14.70
2013,08,11,03,53,14.70
2013,08,11,03,54,14.70
2013,08,11,03,55,14.70
2013,08,11,03,56,14.70
2013,08,11,03,57,14.70
2013,08,11,03,58,14.70
2013,08,11,03,59,14.70
2013,08,11,04,00,14.70
2013,08,11,04,01,14.70
2013,08,11,04,02,14.70
2013,08,11,04,03,14.70
2013,08,11,04,04,14.60
2013,08,11,04,05,14.60
2013,08,11,04,06,14.60
2013,08,11,04,07,14.60
2013,08,11,04,08,14.60
2013,08,11,04,09,14.60
2013,08,11,04,10,14.60
2013,08,11,04,11,14.60
2013,08,11,04,12,14.60
2013,08,11,04,13,14.60
2013,08,11,04,14,14.60
2013,08,11,04,15,14.60
2013,08,11,04,16,14.60
2013,08,11,04,17,14.60
2013,08,11,04,18,14.60
2013,08,11,04,19,14.60
2013,08,11,04,20,14.60
2013,08,11,04,21,14.60
2013,08,11,04,22,14.60
2013,08,11,04,23,14.50
2013,08,11,04,24,14.50
2013,08,11,04,25,14.50
2013,08,11,04,26,14.50
2013,08,11,04,27,14.50
2013,08,11,04,28,14.50
2013,08,11,04,29,14.50
2013,08,11,04,30,14.50
2013,08,11,04,31,14.40
2013,08,11,04,32,14.40
2013,08,11,04,33,14.40
2013,08,11,04,34,14.40
2013,08,11,04,35,14.40
2013,08,11,04,36,14.40
2013,08,11,04,37,14.40
2013,08,11,04,38,14.40
2013,08,11,04,39,14.40
2013,08,11,04,40,14.40
2013,08,11,04,41,14.40
2013,08,11,04,42,14.40
2013,08,11,04,43,14.30
2013,08,11,04,44,14.30
2013,08,11,04,45,14.30
2013,08,11,04,46,14.30
2013,08,11,04,47,14.30
2013,08,11,04,48,14.30
2013,08,11,04,49,14.30
2013,08,11,04,50,14.30
2013,08,11,04,51,14.30
2013,08,11,04,52,14.30
2013,08,11,04,53,14.30
2013,08,11,04,54,14.30
2013,08,11,04,55,14.30
2013,08,11,04,56,14.30
2013,08,11,04,57,14.30
2013,08,11,04,58,14.30
2013,08,11,04,59,14.20
2013,08,11,05,00,14.20
2013,08,11,05,01,14.20
2013,08,11,05,02,14.20
2013,08,11,05,03,14.20
2013,08,11,05,04,14.20
2013,08,11,05,05,14.20
2013,08,11,05,06,14.20
2013,08,11,05,07,14.20
2013,08,11,05,08,14.20
2013,08,11,05,09,14.20
2013,08,11,05,10,14.20
2013,08,11,05,11,14.20
2013,08,11,05,12,14.10
2013,08,11,05,13,14.10
2013,08,11,05,14,14.10
2013,08,11,05,15,14.10
2013,08,11,05,16,14.10
2013,08,11,05,17,14.10
2013,08,11,05,18,14.10
2013,08,11,05,19,14.10
2013,08,11,05,20,14.10
2013,08,11,05,21,14.00
2013,08,11,05,22,14.00
2013,08,11,05,23,14.00
2013,08,11,05,24,14.00
2013,08,11,05,25,13.90
2013,08,11,05,26,13.90
2013,08,11,05,27,13.90
2013,08,11,05,28,13.90
2013,08,11,05,29,13.90
2013,08,11,05,30,13.80
2013,08,11,05,31,13.80
2013,08,11,05,32,13.80
2013,08,11,05,33,13.80
2013,08,11,05,34,13.80
2013,08,11,05,35,13.80
2013,08,11,05,36,13.80
2013,08,11,05,37,13.80
2013,08,11,05,38,13.80
2013,08,11,05,39,13.80
2013,08,11,05,40,13.80
2013,08,11,05,41,13.80
2013,08,11,05,42,13.80
2013,08,11,05,43,13.80
2013,08,11,05,44,13.80
2013,08,11,05,45,13.80
2013,08,11,05,46,13.70
2013,08,11,05,47,13.70
2013,08,11,05,48,13.70
2013,08,11,05,49,13.70
2013,08,11,05,50,13.70
2013,08,11,05,51,13.70
2013,08,11,05,52,13.70
2013,08,11,05,53,13.70
2013,08,11,05,54,13.70
2013,08,11,05,55,13.70
2013,08,11,05,56,13.70
2013,08,11,05,57,13.70
2013,08,11,05,58,13.70
2013,08,11,05,59,13.70
2013,08,11,06,00,13.70
2013,08,11,06,01,13.70
2013,08,11,06,02,13.70
2013,08,11,06,03,13.70
2013,08,11,06,04,13.70
2013,08,11,06,05,13.70
2013,08,11,06,06,13.60
2013,08,11,06,07,13.60
2013,08,11,06,08,13.60
2013,08,11,06,09,13.60
2013,08,11,06,10,13.60
2013,08,11,06,11,13.60
2013,08,11,06,12,13.60
2013,08,11,06,13,13.60
2013,08,11,06,14,13.60
2013,08,11,06,15,13.60
2013,08,11,06,16,13.60
2013,08,11,06,17,13.60
2013,08,11,06,18,13.60
2013,08,11,06,19,13.60
2013,08,11,06,20,13.60
2013,08,11,06,21,13.60
2013,08,11,06,22,13.60
2013,08,11,06,23,13.60
2013,08,11,06,24,13.60
2013,08,11,06,25,13.60
2013,08,11,06,26,13.60
2013,08,11,06,27,13.60
2013,08,11,06,28,13.50
2013,08,11,06,29,13.50
2013,08,11,06,30,13.50
2013,08,11,06,31,13.50
2013,08,11,06,32,13.50
2013,08,11,06,33,13.50
2013,08,11,06,34,13.50
2013,08,11,06,35,13.50
2013,08,11,06,36,13.50
2013,08,11,06,37,13.50
2013,08,11,06,38,13.50
2013,08,11,06,39,13.50
2013,08,11,06,40,13.50
2013,08,11,06,41,13.50
2013,08,11,06,42,13.50
2013,08,11,06,43,13.50
2013,08,11,06,44,13.50
2013,08,11,06,45,13.50
2013,08,11,06,46,13.50
2013,08,11,06,47,13.50
2013,08,11,06,48,13.60
2013,08,11,06,49,13.60
2013,08,11,06,50,13.60
2013,08,11,06,51,13.60
2013,08,11,06,52,13.60
2013,08,11,06,53,13.70
2013,08,11,06,54,13.70
2013,08,11,06,55,13.70
2013,08,11,06,56,13.70
2013,08,11,06,57,13.80
2013,08,11,06,58,13.80
2013,08,11,06,59,13.80
2013,08,11,07,00,13.90
2013,08,11,07,01,13.90
2013,08,11,07,02,13.90
2013,08,11,07,03,14.00
2013,08,11,07,04,14.10
2013,08,11,07,05,14.10
2013,08,11,07,06,14.20
2013,08,11,07,07,14.20
2013,08,11,07,08,14.30
2013,08,11,07,09,14.30
2013,08,11,07,10,14.40
2013,08,11,07,11,14.40
2013,08,11,07,12,14.50
2013,08,11,07,13,14.50
2013,08,11,07,14,14.50
2013,08,11,07,15,14.60
2013,08,11,07,16,14.60
2013,08,11,07,17,14.60
2013,08,11,07,18,14.60
2013,08,11,07,19,14.70
2013,08,11,07,20,14.70
2013,08,11,07,21,14.70
2013,08,11,07,22,14.70
2013,08,11,07,23,14.70
2013,08,11,07,24,14.80
2013,08,11,07,25,14.80
2013,08,11,07,26,14.80
2013,08,11,07,27,14.80
2013,08,11,07,28,14.80
2013,08,11,07,29,14.80
2013,08,11,07,30,14.90
2013,08,11,07,31,14.90
2013,08,11,07,32,14.90
2013,08,11,07,33,14.90
2013,08,11,07,34,15.00
2013,08,11,07,35,15.00
2013,08,11,07,36,15.00
2013,08,11,07,37,15.10
2013,08,11,07,38,15.10
2013,08,11,07,39,15.10
2013,08,11,07,40,15.10
2013,08,11,07,41,15.10
2013,08,11,07,42,15.10
2013,08,11,07,43,15.10
2013,08,11,07,44,15.10
2013,08,11,07,45,15.10
2013,08,11,07,46,15.10
2013,08,11,07,47,15.10
2013,08,11,07,48,15.20
2013,08,11,07,49,15.20
2013,08,11,07,50,15.20
2013,08,11,07,51,15.20
2013,08,11,07,52,15.20
2013,08,11,07,53,15.20
2013,08,11,07,54,15.30
2013,08,11,07,55,15.30
2013,08,11,07,56,15.30
2013,08,11,07,57,15.30
2013,08,11,07,58,15.30
2013,08,11,07,59,15.40
2013,08,11,08,00,15.40
2013,08,11,08,01,15.40
2013,08,11,08,02,15.50
2013,08,11,08,03,15.60
2013,08,11,08,04,15.60
2013,08,11,08,05,15.70
2013,08,11,08,06,15.80
2013,08,11,08,07,15.80
2013,08,11,08,08,15.80
2013,08,11,08,09,15.90
2013,08,11,08,10,15.90
2013,08,11,08,11,16.00
2013,08,11,08,12,16.00
2013,08,11,08,13,16.10
2013,08,11,08,14,16.10
2013,08,11,08,15,16.10
2013,08,11,08,16,16.10
2013,08,11,08,17,16.20
2013,08,11,08,18,16.20
2013,08,11,08,19,16.20
2013,08,11,08,20,16.20
2013,08,11,08,21,16.20
2013,08,11,08,22,16.20
2013,08,11,08,23,16.20
2013,08,11,08,24,16.20
2013,08,11,08,25,16.20
2013,08,11,08,26,16.20
2013,08,11,08,27,16.30
2013,08,11,08,28,16.30
2013,08,11,08,29,16.30
2013,08,11,08,30,16.30
2013,08,11,08,31,16.30
2013,08,11,08,32,16.40
2013,08,11,08,33,16.40
2013,08,11,08,34,16.40
2013,08,11,08,35,16.40
2013,08,11,08,36,16.40
2013,08,11,08,37,16.40
2013,08,11,08,38,16.40
2013,08,11,08,39,16.40
2013,08,11,08,40,16.40
2013,08,11,08,41,16.40
2013,08,11,08,42,16.40
2013,08,11,08,43,16.40
2013,08,11,08,44,16.40
2013,08,11,08,45,16.40
2013,08,11,08,46,16.40
2013,08,11,08,47,16.50
2013,08,11,08,48,16.50
2013,08,11,08,49,16.50
2013,08,11,08,50,16.50
2013,08,11,08,51,16.50
2013,08,11,08,52,16.50
2013,08,11,08,53,16.50
2013,08,11,08,54,16.40
2013,08,11,08,55,16.40
2013,08,11,08,56,16.40
2013,08,11,08,57,16.40
2013,08,11,08,58,16.40
2013,08,11,08,59,16.50
2013,08,11,09,00,16.50
2013,08,11,09,01,16.50
2013,08,11,09,02,16.40
2013,08,11,09,03,16.40
2013,08,11,09,04,16.40
2013,08,11,09,05,16.30
2013,08,11,09,06,16.30
2013,08,11,09,07,16.30
2013,08,11,09,08,16.20
2013,08,11,09,09,16.20
2013,08,11,09,10,16.20
2013,08,11,09,11,16.10
2013,08,11,09,12,16.10
2013,08,11,09,13,16.10
2013,08,11,09,14,16.10
2013,08,11,09,15,16.00
2013,08,11,09,16,16.00
2013,08,11,09,17,16.00
2013,08,11,09,18,16.00
2013,08,11,09,19,16.00
2013,08,11,09,20,16.00
2013,08,11,09,21,16.10
2013,08,11,09,22,16.10
2013,08,11,09,23,16.10
2013,08,11,09,24,16.20
2013,08,11,09,25,16.20
2013,08,11,09,26,16.20
2013,08,11,09,27,16.30
2013,08,11,09,28,16.40
2013,08,11,09,29,16.50
2013,08,11,09,30,16.60
2013,08,11,09,31,16.60
2013,08,11,09,32,16.70
2013,08,11,09,33,16.80
2013,08,11,09,34,16.80
2013,08,11,09,35,16.80
2013,08,11,09,36,16.80
2013,08,11,09,37,16.90
2013,08,11,09,38,16.90
2013,08,11,09,39,16.90
2013,08,11,09,40,17.00
2013,08,11,09,41,17.10
2013,08,11,09,42,17.10
2013,08,11,09,43,17.10
2013,08,11,09,44,17.20
2013,08,11,09,45,17.20
2013,08,11,09,46,17.30
2013,08,11,09,47,17.30
2013,08,11,09,48,17.40
2013,08,11,09,49,17.50
2013,08,11,09,50,17.50
2013,08,11,09,51,17.50
2013,08,11,09,52,17.60
2013,08,11,09,53,17.60
2013,08,11,09,54,17.60
2013,08,11,09,55,17.60
2013,08,11,09,56,17.70
2013,08,11,09,57,17.70
2013,08,11,09,58,17.70
2013,08,11,09,59,17.80
2013,08,11,10,00,17.80
2013,08,11,10,01,17.80
2013,08,11,10,02,17.80
2013,08,11,10,03,17.80
2013,08,11,10,04,17.90
2013,08,11,10,05,17.90
2013,08,11,10,06,18.00
2013,08,11,10,07,18.00
2013,08,11,10,08,18.10
2013,08,11,10,09,18.20
2013,08,11,10,10,18.20
2013,08,11,10,11,18.20
2013,08,11,10,12,18.20
2013,08,11,10,13,18.20
2013,08,11,10,14,18.30
2013,08,11,10,15,18.20
2013,08,11,10,16,18.20
2013,08,11,10,17,18.20
2013,08,11,10,18,18.20
2013,08,11,10,19,18.20
2013,08,11,10,20,18.20
2013,08,11,10,21,18.30
2013,08,11,10,22,18.30
2013,08,11,10,23,18.30
2013,08,11,10,24,18.40
2013,08,11,10,25,18.40
2013,08,11,10,26,18.40
2013,08,11,10,27,18.40
2013,08,11,10,28,18.40
2013,08,11,10,29,18.40
2013,08,11,10,30,18.30
2013,08,11,10,31,18.30
2013,08,11,10,32,18.30
2013,08,11,10,33,18.30
2013,08,11,10,34,18.30
2013,08,11,10,35,18.40
2013,08,11,10,36,18.40
2013,08,11,10,37,18.40
2013,08,11,10,38,18.40
2013,08,11,10,39,18.40
2013,08,11,10,40,18.50
2013,08,11,10,41,18.50
2013,08,11,10,42,18.50
2013,08,11,10,43,18.50
2013,08,11,10,44,18.50
2013,08,11,10,45,18.50
2013,08,11,10,46,18.50
2013,08,11,10,47,18.50
2013,08,11,10,48,18.50
2013,08,11,10,49,18.60
2013,08,11,10,50,18.60
2013,08,11,10,51,18.60
2013,08,11,10,52,18.60
2013,08,11,10,53,18.60
2013,08,11,10,54,18.70
2013,08,11,10,55,18.70
2013,08,11,10,56,18.70
2013,08,11,10,57,18.80
2013,08,11,10,58,18.80
2013,08,11,10,59,18.90
2013,08,11,11,00,18.90
2013,08,11,11,01,19.00
2013,08,11,11,02,19.00
2013,08,11,11,03,19.00
2013,08,11,11,04,19.00
2013,08,11,11,05,19.00
2013,08,11,11,06,19.00
2013,08,11,11,07,19.00
2013,08,11,11,08,19.00
2013,08,11,11,09,19.00
2013,08,11,11,10,19.00
2013,08,11,11,11,19.10
2013,08,11,11,12,19.10
2013,08,11,11,13,19.10
2013,08,11,11,14,19.20
2013,08,11,11,15,19.10
2013,08,11,11,16,19.20
2013,08,11,11,17,19.20
2013,08,11,11,18,19.30
2013,08,11,11,19,19.30
2013,08,11,11,20,19.30
2013,08,11,11,21,19.40
2013,08,11,11,22,19.50
2013,08,11,11,23,19.60
2013,08,11,11,24,19.60
2013,08,11,11,25,19.70
2013,08,11,11,26,19.80
2013,08,11,11,27,19.90
2013,08,11,11,28,20.00
2013,08,11,11,29,20.10
2013,08,11,11,30,20.20
2013,08,11,11,31,20.40
2013,08,11,11,32,20.50
2013,08,11,11,33,20.50
2013,08,11,11,34,20.40
2013,08,11,11,35,20.50
2013,08,11,11,36,20.50
2013,08,11,11,37,20.60
2013,08,11,11,38,20.50
2013,08,11,11,39,20.50
2013,08,11,11,40,20.50
2013,08,11,11,41,20.50
2013,08,11,11,42,20.60
2013,08,11,11,43,20.60
2013,08,11,11,44,20.60
2013,08,11,11,45,20.60
2013,08,11,11,46,20.70
2013,08,11,11,47,20.70
2013,08,11,11,48,20.70
2013,08,11,11,49,20.70
2013,08,11,11,50,20.70
2013,08,11,11,51,20.60
2013,08,11,11,52,20.50
2013,08,11,11,53,20.40
2013,08,11,11,54,20.30
2013,08,11,11,55,20.20
2013,08,11,11,56,20.10
2013,08,11,11,57,20.10
2013,08,11,11,58,20.10
2013,08,11,11,59,20.10
2013,08,11,12,00,20.10
2013,08,11,12,01,20.10
2013,08,11,12,02,20.10
2013,08,11,12,03,20.00
2013,08,11,12,04,20.00
2013,08,11,12,05,20.00
2013,08,11,12,06,20.00
2013,08,11,12,07,19.90
2013,08,11,12,08,20.00
2013,08,11,12,09,19.90
2013,08,11,12,10,19.90
2013,08,11,12,11,19.90
2013,08,11,12,12,19.90
2013,08,11,12,13,19.90
2013,08,11,12,14,19.90
2013,08,11,12,15,20.00
2013,08,11,12,16,20.00
2013,08,11,12,17,20.00
2013,08,11,12,18,20.00
2013,08,11,12,19,20.00
2013,08,11,12,20,19.90
2013,08,11,12,21,19.80
2013,08,11,12,22,19.80
2013,08,11,12,23,19.70
2013,08,11,12,24,19.70
2013,08,11,12,25,19.70
2013,08,11,12,26,19.70
2013,08,11,12,27,19.60
2013,08,11,12,28,19.70
2013,08,11,12,29,19.70
2013,08,11,12,30,19.70
2013,08,11,12,31,19.70
2013,08,11,12,32,19.80
2013,08,11,12,33,19.80
2013,08,11,12,34,19.80
2013,08,11,12,35,19.80
2013,08,11,12,36,19.80
2013,08,11,12,37,19.90
2013,08,11,12,38,19.90
2013,08,11,12,39,20.00
2013,08,11,12,40,20.10
2013,08,11,12,41,20.10
2013,08,11,12,42,20.20
2013,08,11,12,43,20.30
2013,08,11,12,44,20.40
2013,08,11,12,45,20.40
2013,08,11,12,46,20.40
2013,08,11,12,47,20.50
2013,08,11,12,48,20.50
2013,08,11,12,49,20.60
2013,08,11,12,50,20.60
2013,08,11,12,51,20.70
2013,08,11,12,52,20.70
2013,08,11,12,53,20.80
2013,08,11,12,54,20.90
2013,08,11,12,55,20.90
2013,08,11,12,56,21.00
2013,08,11,12,57,21.00
2013,08,11,12,58,21.00
2013,08,11,12,59,21.10
2013,08,11,13,00,21.10
2013,08,11,13,01,21.10
2013,08,11,13,02,21.00
2013,08,11,13,03,20.90
2013,08,11,13,04,20.90
2013,08,11,13,05,20.80
2013,08,11,13,06,20.80
2013,08,11,13,07,20.80
2013,08,11,13,08,20.70
2013,08,11,13,09,20.70
2013,08,11,13,10,20.60
2013,08,11,13,11,20.50
2013,08,11,13,12,20.50
2013,08,11,13,13,20.40
2013,08,11,13,14,20.40
2013,08,11,13,15,20.40
2013,08,11,13,16,20.40
2013,08,11,13,17,20.30
2013,08,11,13,18,20.30
2013,08,11,13,19,20.30
2013,08,11,13,20,20.30
2013,08,11,13,21,20.30
2013,08,11,13,22,20.30
2013,08,11,13,23,20.30
2013,08,11,13,24,20.30
2013,08,11,13,25,20.30
2013,08,11,13,26,20.40
2013,08,11,13,27,20.40
2013,08,11,13,28,20.40
2013,08,11,13,29,20.40
2013,08,11,13,30,20.50
2013,08,11,13,31,20.50
2013,08,11,13,32,20.60
2013,08,11,13,33,20.60
2013,08,11,13,34,20.70
2013,08,11,13,35,20.70
2013,08,11,13,36,20.70
2013,08,11,13,37,20.70
2013,08,11,13,38,20.80
2013,08,11,13,39,20.80
2013,08,11,13,40,20.80
2013,08,11,13,41,20.90
2013,08,11,13,42,20.90
2013,08,11,13,43,20.90
2013,08,11,13,44,20.90
2013,08,11,13,45,20.90
2013,08,11,13,46,20.80
2013,08,11,13,47,20.80
2013,08,11,13,48,20.80
2013,08,11,13,49,20.70
2013,08,11,13,50,20.70
2013,08,11,13,51,20.70
2013,08,11,13,52,20.70
2013,08,11,13,53,20.70
2013,08,11,13,54,20.70
2013,08,11,13,55,20.70
2013,08,11,13,56,20.70
2013,08,11,13,57,20.70
2013,08,11,13,58,20.70
2013,08,11,13,59,20.60
2013,08,11,14,00,20.60
2013,08,11,14,01,20.70
2013,08,11,14,02,20.70
2013,08,11,14,03,20.70
2013,08,11,14,04,20.70
2013,08,11,14,05,20.70
2013,08,11,14,06,20.60
2013,08,11,14,07,20.60
2013,08,11,14,08,20.60
2013,08,11,14,09,20.60
2013,08,11,14,10,20.60
2013,08,11,14,11,20.50
2013,08,11,14,12,20.50
2013,08,11,14,13,20.40
2013,08,11,14,14,20.30
2013,08,11,14,15,20.30
2013,08,11,14,16,20.20
2013,08,11,14,17,20.20
2013,08,11,14,18,20.10
2013,08,11,14,19,20.00
2013,08,11,14,20,19.90
2013,08,11,14,21,19.90
2013,08,11,14,22,19.80
2013,08,11,14,23,19.70
2013,08,11,14,24,19.60
2013,08,11,14,25,19.50
2013,08,11,14,26,19.50
2013,08,11,14,27,19.40
2013,08,11,14,28,19.40
2013,08,11,14,29,19.30
2013,08,11,14,30,19.30
2013,08,11,14,31,19.30
2013,08,11,14,32,19.20
2013,08,11,14,33,19.30
2013,08,11,14,34,19.30
2013,08,11,14,35,19.30
2013,08,11,14,36,19.30
2013,08,11,14,37,19.30
2013,08,11,14,38,19.30
2013,08,11,14,39,19.30
2013,08,11,14,40,19.30
2013,08,11,14,41,19.30
2013,08,11,14,42,19.40
2013,08,11,14,43,19.40
2013,08,11,14,44,19.40
2013,08,11,14,45,19.40
2013,08,11,14,46,19.40
2013,08,11,14,47,19.40
2013,08,11,14,48,19.40
2013,08,11,14,49,19.40
2013,08,11,14,50,19.30
2013,08,11,14,51,19.40
2013,08,11,14,52,19.40
2013,08,11,14,53,19.40
2013,08,11,14,54,19.50
2013,08,11,14,55,19.60
2013,08,11,14,56,19.60
2013,08,11,14,57,19.60
2013,08,11,14,58,19.60
2013,08,11,14,59,19.60
2013,08,11,15,00,19.60
2013,08,11,15,01,19.60
2013,08,11,15,02,19.60
2013,08,11,15,03,19.70
2013,08,11,15,04,19.70
2013,08,11,15,05,19.70
2013,08,11,15,06,19.70
2013,08,11,15,07,19.70
2013,08,11,15,08,19.70
2013,08,11,15,09,19.70
2013,08,11,15,10,19.80
2013,08,11,15,11,19.80
2013,08,11,15,12,19.80
2013,08,11,15,13,19.80
2013,08,11,15,14,19.80
2013,08,11,15,15,19.70
2013,08,11,15,16,19.70
2013,08,11,15,17,19.70
2013,08,11,15,18,19.70
2013,08,11,15,19,19.60
2013,08,11,15,20,19.60
2013,08,11,15,21,19.60
2013,08,11,15,22,19.60
2013,08,11,15,23,19.60
2013,08,11,15,24,19.50
2013,08,11,15,25,19.50
2013,08,11,15,26,19.50
2013,08,11,15,27,19.50
2013,08,11,15,28,19.50
2013,08,11,15,29,19.50
2013,08,11,15,30,19.40
2013,08,11,15,31,19.50
2013,08,11,15,32,19.50
2013,08,11,15,33,19.50
2013,08,11,15,34,19.50
2013,08,11,15,35,19.50
2013,08,11,15,36,19.40
2013,08,11,15,37,19.40
2013,08,11,15,38,19.40
2013,08,11,15,39,19.40
2013,08,11,15,40,19.40
2013,08,11,15,41,19.40
2013,08,11,15,42,19.40
2013,08,11,15,43,19.40
2013,08,11,15,44,19.40
2013,08,11,15,45,19.40
2013,08,11,15,46,19.40
2013,08,11,15,47,19.40
2013,08,11,15,48,19.30
2013,08,11,15,49,19.30
2013,08,11,15,50,19.30
2013,08,11,15,51,19.30
2013,08,11,15,52,19.30
2013,08,11,15,53,19.30
2013,08,11,15,54,19.30
2013,08,11,15,55,19.30
2013,08,11,15,56,19.30
2013,08,11,15,57,19.30
2013,08,11,15,58,19.30
2013,08,11,15,59,19.20
2013,08,11,16,00,19.20
2013,08,11,16,01,19.20
2013,08,11,16,02,19.20
2013,08,11,16,03,19.20
2013,08,11,16,04,19.20
2013,08,11,16,05,19.20
2013,08,11,16,06,19.20
2013,08,11,16,07,19.10
2013,08,11,16,08,19.10
2013,08,11,16,09,19.10
2013,08,11,16,10,19.10
2013,08,11,16,11,19.10
2013,08,11,16,12,19.00
2013,08,11,16,13,19.00
2013,08,11,16,14,18.90
2013,08,11,16,15,18.90
2013,08,11,16,16,18.90
2013,08,11,16,17,18.80
2013,08,11,16,18,18.80
2013,08,11,16,19,18.80
2013,08,11,16,20,18.70
2013,08,11,16,21,18.70
2013,08,11,16,22,18.60
2013,08,11,16,23,18.60
2013,08,11,16,24,18.50
2013,08,11,16,25,18.50
2013,08,11,16,26,18.40
2013,08,11,16,27,18.30
2013,08,11,16,28,18.30
2013,08,11,16,29,18.30
2013,08,11,16,30,18.20
2013,08,11,16,31,18.20
2013,08,11,16,32,18.10
2013,08,11,16,33,18.10
2013,08,11,16,34,18.00
2013,08,11,16,35,18.00
2013,08,11,16,36,17.90
2013,08,11,16,37,17.90
2013,08,11,16,38,17.90
2013,08,11,16,39,17.80
2013,08,11,16,40,17.80
2013,08,11,16,41,17.80
2013,08,11,16,42,17.70
2013,08,11,16,43,17.70
2013,08,11,16,44,17.70
2013,08,11,16,45,17.60
2013,08,11,16,46,17.60
2013,08,11,16,47,17.60
2013,08,11,16,48,17.60
2013,08,11,16,49,17.60
2013,08,11,16,50,17.60
2013,08,11,16,51,17.60
2013,08,11,16,52,17.50
2013,08,11,16,53,17.50
2013,08,11,16,54,17.50
2013,08,11,16,55,17.50
2013,08,11,16,56,17.50
2013,08,11,16,57,17.50
2013,08,11,16,58,17.50
2013,08,11,16,59,17.50
2013,08,11,17,00,17.50
2013,08,11,17,01,17.50
2013,08,11,17,02,17.60
2013,08,11,17,03,17.50
2013,08,11,17,04,17.60
2013,08,11,17,05,17.60
2013,08,11,17,06,17.50
2013,08,11,17,07,17.60
2013,08,11,17,08,17.60
2013,08,11,17,09,17.60
2013,08,11,17,10,17.60
2013,08,11,17,11,17.60
2013,08,11,17,12,17.60
2013,08,11,17,13,17.60
2013,08,11,17,14,17.60
2013,08,11,17,15,17.60
2013,08,11,17,16,17.60
2013,08,11,17,17,17.60
2013,08,11,17,18,17.60
2013,08,11,17,19,17.60